EW5773 Weather Reports


Display with metric or nautical units.
time (UTC)temp
F
wind
direction
speed
MPH
gust
MPH
rain 1hr
in
rain 24hr
in
rain mn
in
humidity
%
barometer
mb
20260507230008 51 84 2.0 4.0 0.00 0.00 0.00 79 1014.8
20260507224505 52 86 1.0 6.0 0.00 0.00 0.00 78 1014.7
20260507223005 52 84 3.0 7.0 0.00 0.00 0.00 76 1014.7
20260507221609 53 84 3.0 9.0 0.00 0.00 0.00 75 1014.8
20260507220036 53 80 3.0 8.0 0.00 0.00 0.00 74 1014.6
20260507214501 53 82 3.0 6.0 0.00 0.00 0.00 74 1014.7
20260507213014 53 83 3.0 6.0 0.00 0.00 0.00 73 1014.7
20260507211513 54 65 2.0 6.0 0.00 0.00 0.00 72 1014.7
20260507210015 54 64 2.0 6.0 0.00 0.00 0.00 72 1014.7
20260507204548 54 64 2.0 6.0 0.00 0.00 0.00 72 1014.5
20260507203036 54 51 2.0 5.0 0.00 0.00 0.00 71 1014.5
20260507201507 55 44 2.0 6.0 0.00 0.00 0.00 71 1014.5
20260507200006 56 43 4.0 6.0 0.00 0.00 0.00 69 1014.2
20260507194507 57 40 2.0 8.0 0.00 0.00 0.00 68 1014.1
20260507193005 57 82 1.0 3.0 0.00 0.00 0.00 65 1014.0
20260507191505 58 82 1.0 4.0 0.00 0.00 0.00 63 1014.0
20260507190018 59 86 2.0 8.0 0.00 0.00 0.00 61 1013.9
20260507184518 59 87 2.0 9.0 0.00 0.00 0.00 60 1013.8
20260507183017 60 73 3.0 5.0 0.00 0.00 0.00 59 1013.6
20260507181513 60 39 3.0 9.0 0.00 0.00 0.00 59 1013.5
20260507180010 61 360 3.0 9.0 0.00 0.00 0.00 57 1013.5
20260507174510 62 360 4.0 10.0 0.00 0.00 0.00 56 1013.6
20260507173036 62 42 4.0 9.0 0.00 0.00 0.00 56 1013.4
20260507171512 63 51 4.0 11.0 0.00 0.00 0.00 53 1013.4
20260507170005 65 53 3.0 11.0 0.00 0.00 0.00 51 1013.4
20260507164503 65 86 3.0 9.0 0.00 0.00 0.00 49 1013.5
20260507163003 66 53 2.0 9.0 0.00 0.00 0.00 49 1013.5
20260507161516 66 44 2.0 6.0 0.00 0.00 0.00 48 1013.6
20260507160056 66 84 1.0 8.0 0.00 0.00 0.00 48 1013.6
20260507154509 64 341 0.0 3.0 0.00 0.00 0.00 50 1013.7
20260507153009 63 340 1.0 4.0 0.00 0.00 0.00 51 1013.7
20260507151521 63 53 1.0 6.0 0.00 0.00 0.00 51 1014.0
20260507150018 63 360 1.0 6.0 0.00 0.00 0.00 51 1014.0
20260507144517 63 40 3.0 6.0 0.00 0.00 0.00 51 1014.0
20260507143020 63 360 2.0 8.0 0.00 0.00 0.00 51 1014.1
20260507141515 64 44 4.0 11.0 0.00 0.00 0.00 49 1014.0
20260507140015 67 11 4.0 8.0 0.00 0.00 0.00 47 1014.2
20260507134515 66 81 0.0 2.0 0.00 0.00 0.00 48 1014.5
20260507133009 63 79 3.0 7.0 0.00 0.00 0.00 53 1014.5
20260507131513 61 341 1.0 5.0 0.00 0.00 0.00 54 1014.4
20260507130010 63 309 4.0 8.0 0.00 0.00 0.00 53 1014.5
20260507124509 61 319 2.0 6.0 0.00 0.00 0.00 54 1014.5
20260507123018 62 92 3.0 6.0 0.00 0.00 0.00 52 1014.6
20260507121517 60 360 4.0 6.0 0.00 0.00 0.00 57 1014.8
20260507120032 60 346 3.0 9.0 0.00 0.00 0.00 57 1014.8
20260507114520 61 50 3.0 9.0 0.00 0.00 0.00 57 1014.9
20260507113018 60 259 0.0 5.0 0.00 0.00 0.00 60 1014.7
20260507111551 58 341 1.0 4.0 0.00 0.00 0.00 64 1015.0
20260507110009 57 344 2.0 8.0 0.00 0.00 0.00 64 1014.9
20260507104510 57 329 1.0 5.0 0.00 0.00 0.00 65 1015.0
20260507103007 56 311 2.0 9.0 0.00 0.00 0.00 66 1015.0
20260507101506 57 321 4.0 10.0 0.00 0.00 0.00 65 1015.1
20260507100003 57 16 2.0 6.0 0.00 0.00 0.00 66 1015.1
20260507094502 57 355 1.0 5.0 0.00 0.00 0.00 64 1015.2
20260507093004 58 325 2.0 8.0 0.00 0.00 0.00 67 1015.2
20260507091503 57 339 2.0 9.0 0.00 0.00 0.00 67 1015.1
20260507090022 57 343 3.0 7.0 0.00 0.00 0.00 68 1015.0
20260507084516 57 338 4.0 9.0 0.00 0.00 0.00 72 1014.9
20260507083013 57 360 2.0 6.0 0.00 0.00 0.00 74 1015.0
20260507081520 55 360 2.0 9.0 0.00 0.00 0.00 78 1015.0
20260507080011 54 47 3.0 7.0 0.00 0.00 0.00 81 1014.9
20260507074521 52 32 4.0 6.0 0.00 0.00 0.00 85 1014.9
20260507073008 51 51 2.0 6.0 0.00 0.00 0.00 87 1014.9
20260507071506 50 40 3.0 8.0 0.00 0.00 0.00 89 1014.8
20260507070010 48 16 2.0 7.0 0.00 0.00 0.00 90 1014.9
20260507064506 47 21 2.0 6.0 0.00 0.01 0.00 91 1014.9
20260507063103 46 338 3.0 5.0 0.00 0.01 0.00 91 1014.8
20260507061518 45 346 1.0 5.0 0.00 0.01 0.00 92 1014.7
20260507060017 44 332 2.0 5.0 0.00 0.01 0.00 92 1014.7
20260507054519 42 330 2.0 5.0 0.00 0.02 0.00 92 1014.6
20260507053012 42 324 2.0 5.0 0.00 0.02 0.00 92 1014.4
20260507051510 41 329 2.0 5.0 0.00 0.02 0.00 92 1014.3
20260507050017 41 316 3.0 5.0 0.00 0.02 0.00 91 1014.1
20260507044506 41 310 3.0 5.0 0.00 0.03 0.00 91 1014.1
20260507043004 41 313 3.0 4.0 0.00 0.03 0.00 91 1014.0
20260507041505 41 313 3.0 5.0 0.00 0.03 0.00 91 1014.0
20260507040007 41 311 3.0 5.0 0.00 0.03 0.00 91 1013.8
20260507034603 41 315 3.0 5.0 0.00 0.05 0.00 90 1013.7
20260507031515 41 313 3.0 5.0 0.00 0.05 0.00 90 1013.8
20260507030018 42 311 4.0 6.0 0.00 0.05 0.00 90 1013.8
20260507024511 42 310 4.0 5.0 0.00 0.06 0.00 90 1013.7
20260507023010 42 311 3.0 6.0 0.00 0.06 0.00 90 1013.9
20260507021509 42 313 3.0 6.0 0.00 0.06 0.00 90 1013.9
20260507020007 42 315 2.0 4.0 0.00 0.06 0.00 90 1013.7
20260507014508 42 315 2.0 5.0 0.00 0.08 0.00 90 1013.6
20260507013007 42 315 1.0 3.0 0.00 0.08 0.00 89 1013.5
20260507011506 42 315 0.0 3.0 0.00 0.08 0.00 89 1013.6
20260507010007 42 315 2.0 5.0 0.00 0.08 0.00 89 1013.4
20260507004507 42 313 3.0 6.0 0.00 0.09 0.00 89 1013.5
20260507003004 43 312 4.0 5.0 0.00 0.09 0.00 89 1013.4
20260507001607 43 313 2.0 5.0 0.00 0.09 0.00 88 1013.5
20260507000030 43 308 2.0 5.0 0.00 0.09 0.00 88 1013.4
20260506234521 43 315 1.0 4.0 0.00 0.10 0.00 87 1013.4
20260506233017 43 316 2.0 4.0 0.00 0.10 0.00 87 1013.5
20260506231515 44 316 2.0 5.0 0.00 0.10 0.00 86 1013.4